User: anonymous   Login
Location: Gloden
(48.4833°N, 15.3167°E)
Time: 10:53:05
(UTC+00:00)
Language:

Cosmos 1441 Rocket - Orbit

View from above orbital plane
View from above orbital plane
View from above satellite
View from above satellite

Ground track
Ground track

The orbit data is extracted from the following two-line orbital elements,

1 13819U 83010B   20057.17185706 +.00000730 +00000-0 +36582-4 0  9991
2 13819 081.1130 090.3347 0030928 296.8622 062.9445 15.15716391022464
Epoch (UTC): 26 February 2020 04:07:28
Eccentricity: 0.0030928
inclination: 81.1130°
perigee height: 497 km
apogee height: 540 km
right ascension of ascending node: 90.3347°
argument of perigee: 296.8622°
revolutions per day: 15.15716391
mean anomaly at epoch: 62.9445°
orbit number at epoch: 2246

The dashed part of the orbit path shows where the satellite is in the earth's shadow,  

DLR